Temp
47 42 40 47 52 56 54 52 51 56 61 55 53 56 60 64 61 61 62 63 65 67 70 71 71 70 71 71 71 71 69 69 68 67 66 64 63 66 63 64 67 67 67 65
42 39 48 54 55 55 54 50 52 57 58 52 52 54 60 61 63 64 64 64 65 67 69 71 71 69 70 71 70 70 70 70 70 69 68 67 65 67 65 66 67 67 69 67
37 44 51 50 52 50 51 52 52 51 53 52 49 48 52 59 62 64 66 67 69 68 66 68 69 70 70 69 69 69 72 72 71 70 68 65 64 62 64 64 66 67 67 66
41 49 46 45 45 52 47 57 54 52 47 40 50 38 51 56 59 61 64 65 68 68 68 68 68 68 69 69 70 70 71 71 71 71 68 66 65 63 64 65 66 65 67 66
39 44 44 43 47 54 51 56 52 49 44 41 43 37 46 57 54 58 61 63 66 69 67 66 65 68 70 70 69 70 70 70 69 70 70 67 65 66 64 63 64 64 65 65
47 50 50 51 55 55 56 51 49 46 46 35 42 43 42 50 56 58 61 62 65 65 65 65 64 65 67 66 67 68 68 70 69 69 69 68 66 64 64 63 63 64 64 65
43 45 52 56 50 53 52 46 30 30 32 30 44 41 47 55 60 60 61 62 59 64 65 64 62 61 61 61 64 65 66 68 69 68 69 69 67 67 65 64 65 64 64 64
35 34 48 53 52 47 49 48 34 26 27 31 36 33 44 58 63 62 62 59 59 55 61 62 63 61 60 60 59 60 61 65 66 67 67 68 68 68 68 66 65 65 64 65
38 40 53 53 55 54 46 42 49 35 24 27 36 43 52 57 56 56 55 56 56 58 59 60 60 59 59 57 57 57 57 58 61 64 66 66 67 66 66 64 64 64 64 62
48 37 48 49 53 53 50 54 42 38 23 23 34 35 42 49 52 56 56 56 57 58 59 59 59 57 57 55 56 56 56 56 56 58 60 62 63 62 63 62 61 62 61 61
52 44 37 45 43 45 43 44 45 45 39 29 27 36 50 53 55 55 56 55 53 55 57 58 57 55 54 54 53 53 53 53 54 55 56 57 58 59 60 60 60 63 62 62
51 42 34 40 47 50 52 48 49 39 34 36 33 36 52 52 55 56 55 56 53 52 56 56 54 53 52 52 52 52 52 52 53 54 55 56 56 56 56 57 59 62 63 60
49 37 28 33 42 45 45 48 52 48 41 32 29 37 52 53 53 53 51 53 56 52 51 54 53 51 51 51 52 52 52 52 53 53 54 54 54 54 55 56 58 59 59 58
52 39 34 29 35 43 38 45 47 48 33 33 41 42 48 50 52 53 52 54 56 55 55 53 51 51 51 52 52 52 52 52 52 52 51 51 52 52 52 53 55 58 57 55
47 34 37 40 42 45 42 43 46 44 47 39 45 45 50 52 54 55 56 55 55 55 54 53 52 51 51 51 51 52 52 52 52 51 50 50 51 51 51 50 50 50 52 51
45 32 37 31 40 40 36 44 46 47 48 48 49 44 56 59 53 52 56 56 55 56 55 54 54 53 53 52 51 52 52 51 51 50 50 50 49 49 48 47 46 46 45 46
40 35 34 30 35 35 30 40 44 47 50 50 43 51 54 53 54 54 56 57 56 55 57 56 55 54 52 51 52 50 51 50 49 48 48 47 47 45 46 43 42 41 41 41
40 36 35 29 32 24 37 50 51 48 50 53 54 51 53 55 55 55 56 57 56 55 56 56 56 55 53 51 50 50 49 49 47 45 44 43 42 42 41 40 40 39 39 38
48 39 31 28 29 31 38 41 45 43 43 52 52 55 53 51 46 50 55 56 58 57 56 54 53 54 53 51 49 48 45 44 43 42 41 41 43 40 37 37 36 34 35 34
40 43 34 31 27 25 38 45 49 47 37 52 53 52 52 51 46 52 56 56 51 49 47 48 49 50 50 48 47 44 41 40 40 39 38 38 38 38 38 37 36 34 34 34
31 32 30 30 29 32 41 44 51 33 38 51 55 54 53 48 56 52 51 46 43 42 41 42 41 41 37 36 39 40 39 39 39 40 37 35 36 36 37 36 34 34 34 34
31 30 29 31 26 24 43 46 43 46 44 47 45 49 48 50 47 47 45 41 40 37 36 35 35 33 32 32 34 35 36 35 37 36 35 34 35 35 35 35 34 34 34 33
31 39 33 37 37 39 39 43 43 47 47 43 46 43 46 46 43 43 40 37 34 33 32 32 33 31 30 30 30 30 30 31 31 33 34 34 34 34 34 34 34 33 33 34
38 44 34 35 39 40 44 41 43 44 44 43 43 43 41 41 40 34 33 32 30 30 29 30 29 27 26 26 28 27 28 28 33 34 34 33 33 33 33 33 34 34 34 33
37 41 32 33 34 37 39 42 44 39 39 38 35 37 38 36 33 32 30 29 29 28 27 28 27 25 24 23 23 23 26 31 32 32 31 32 32 33 32 32 33 33 33 35
28 27 36 36 30 37 36 35 37 37 37 35 34 32 33 33 31 30 28 28 26 25 24 24 22 22 20 19 19 19 22 27 32 30 30 30 30 30 30 31 30 35 35 37
MSLP
1017.98 1017.22 1016.29 1015.65 1014.61 1013.92 1013.81 1013.64 1013.16 1012.62 1012.69 1012.85 1012.82 1012.20 1011.79 1011.52 1011.56 1011.57 1011.78 1011.55 1011.53 1011.58 1011.75 1012.44 1013.02 1013.55 1014.08 1014.83 1015.59 1016.09 1016.66 1017.23 1018.03 1018.60 1018.79 1019.18 1019.61 1020.19 1020.69 1020.90 1020.89 1021.08 1021.49 1022.05
1018.04 1016.47 1016.51 1015.96 1014.81 1013.78 1012.96 1013.16 1012.63 1012.38 1012.63 1013.03 1012.89 1012.02 1011.48 1011.16 1010.83 1010.81 1011.02 1011.07 1010.91 1010.90 1011.00 1011.53 1012.29 1012.96 1013.44 1014.04 1014.47 1015.21 1015.70 1016.23 1016.74 1017.40 1017.90 1018.39 1018.90 1019.45 1020.07 1020.29 1020.20 1020.29 1020.60 1021.19
1017.18 1016.42 1016.36 1016.00 1014.24 1013.44 1012.36 1012.24 1012.16 1012.40 1012.97 1013.26 1013.44 1012.01 1011.10 1010.27 1009.93 1009.93 1009.85 1009.77 1009.98 1010.13 1010.48 1010.77 1011.33 1011.79 1012.57 1013.12 1013.73 1014.33 1014.66 1015.20 1015.94 1016.65 1017.52 1018.07 1018.50 1019.03 1019.55 1019.62 1019.73 1019.57 1020.00 1020.37
1016.63 1016.45 1016.36 1015.59 1014.31 1012.85 1012.15 1011.85 1012.07 1012.71 1013.62 1013.69 1013.28 1011.90 1009.95 1009.06 1008.96 1009.17 1008.96 1009.09 1009.18 1009.28 1009.41 1009.86 1010.37 1011.26 1012.11 1012.72 1013.37 1013.93 1014.32 1014.64 1015.38 1016.08 1016.67 1017.22 1017.65 1018.09 1018.39 1018.62 1019.01 1019.11 1019.33 1019.67
1014.86 1015.01 1015.61 1014.95 1013.80 1012.69 1011.78 1011.77 1012.59 1013.33 1014.00 1014.27 1013.72 1013.32 1009.88 1008.76 1008.55 1008.21 1008.18 1008.36 1008.32 1008.37 1008.83 1009.28 1009.77 1010.17 1010.76 1011.66 1012.37 1012.79 1013.48 1013.97 1014.42 1015.01 1015.52 1016.31 1016.93 1017.29 1017.63 1017.97 1018.43 1018.75 1018.85 1018.98
1013.95 1014.25 1014.37 1014.04 1013.20 1012.76 1012.22 1012.50 1013.72 1014.33 1015.04 1014.60 1013.60 1013.11 1009.66 1008.93 1007.84 1007.23 1007.20 1007.36 1007.49 1008.02 1008.42 1008.97 1009.32 1009.90 1010.52 1011.15 1011.89 1012.46 1012.89 1013.15 1013.70 1014.22 1014.85 1015.43 1015.95 1016.54 1017.01 1017.24 1017.67 1017.88 1018.34 1018.48
1013.45 1013.39 1012.69 1012.62 1012.39 1012.31 1012.51 1012.83 1014.61 1015.48 1015.41 1014.01 1012.82 1012.36 1009.60 1007.83 1006.92 1006.55 1006.66 1006.72 1006.74 1007.06 1007.74 1008.50 1009.26 1009.84 1010.27 1010.85 1011.24 1011.75 1012.19 1012.53 1012.83 1013.35 1013.78 1014.31 1014.81 1015.48 1015.98 1016.41 1016.82 1017.11 1017.46 1017.80
1011.10 1012.33 1011.28 1011.06 1011.06 1011.45 1012.38 1012.27 1012.96 1013.99 1014.55 1014.01 1013.25 1011.24 1008.67 1007.13 1006.49 1006.10 1006.11 1006.32 1006.66 1007.13 1007.53 1008.00 1008.60 1009.06 1009.68 1010.43 1010.83 1011.26 1011.63 1011.93 1012.18 1012.53 1012.94 1013.43 1014.07 1014.53 1014.84 1015.25 1015.63 1016.03 1016.40 1016.66
1009.12 1009.65 1009.98 1010.15 1010.52 1010.89 1011.66 1011.88 1011.88 1013.19 1014.69 1014.30 1012.65 1010.64 1008.70 1006.84 1006.41 1006.42 1006.41 1006.55 1006.99 1007.29 1007.64 1007.88 1008.33 1008.90 1009.42 1010.02 1010.43 1010.79 1011.28 1011.53 1011.85 1011.94 1012.31 1012.79 1013.21 1013.65 1013.93 1014.40 1014.88 1015.25 1015.53 1015.99
1007.00 1008.82 1009.24 1010.31 1010.57 1010.54 1010.34 1011.09 1012.07 1012.57 1014.02 1013.87 1011.75 1010.27 1008.25 1006.72 1006.32 1006.39 1006.47 1006.68 1007.06 1007.26 1007.53 1007.84 1008.39 1008.92 1009.50 1009.94 1010.34 1010.74 1011.04 1011.22 1011.55 1011.87 1012.01 1012.24 1012.65 1013.09 1013.53 1014.01 1014.37 1014.69 1015.07 1015.49
1006.40 1007.23 1010.17 1010.34 1009.89 1009.50 1010.77 1010.23 1010.92 1011.64 1012.31 1012.32 1011.74 1009.17 1006.90 1006.03 1005.83 1006.04 1006.26 1006.56 1006.73 1007.18 1007.59 1007.94 1008.45 1008.97 1009.82 1010.31 1010.62 1011.06 1011.36 1011.49 1011.63 1011.76 1011.79 1012.01 1012.27 1012.52 1012.86 1013.29 1013.78 1014.18 1014.79 1015.16
1005.95 1007.34 1009.19 1009.48 1010.25 1010.05 1009.60 1009.29 1009.91 1010.54 1011.15 1011.35 1010.97 1008.60 1006.51 1006.10 1005.83 1005.96 1006.18 1006.35 1006.79 1007.22 1007.68 1008.09 1008.65 1009.23 1010.01 1010.57 1010.86 1011.08 1011.31 1011.44 1011.54 1011.65 1011.87 1012.10 1012.25 1012.53 1012.91 1013.18 1013.44 1013.79 1014.46 1014.86
1005.30 1007.35 1009.36 1010.90 1011.14 1010.16 1009.30 1008.97 1008.45 1009.36 1010.29 1010.45 1010.32 1007.87 1006.68 1006.26 1006.26 1006.31 1006.42 1006.50 1006.92 1007.42 1007.95 1008.48 1009.12 1009.71 1010.06 1010.41 1010.80 1010.96 1011.15 1011.34 1011.50 1011.69 1012.05 1012.38 1012.70 1012.98 1013.10 1013.23 1013.60 1013.91 1014.17 1014.50
1004.71 1006.47 1007.48 1007.60 1006.35 1008.06 1009.01 1008.81 1008.79 1009.20 1010.06 1009.37 1008.19 1007.45 1006.92 1006.62 1006.29 1006.19 1006.25 1006.42 1006.85 1007.45 1008.07 1008.56 1009.20 1009.85 1010.07 1010.22 1010.45 1010.66 1010.91 1011.17 1011.55 1011.86 1012.24 1012.55 1012.83 1013.02 1013.35 1013.57 1013.93 1014.15 1014.27 1014.55
1005.12 1007.20 1007.95 1007.69 1007.75 1008.02 1007.95 1008.21 1008.47 1008.76 1007.91 1008.53 1006.77 1007.22 1006.37 1006.11 1006.03 1005.88 1006.13 1006.46 1006.81 1007.38 1008.05 1008.33 1008.78 1009.33 1009.65 1010.02 1010.26 1010.32 1010.59 1010.92 1011.34 1011.74 1012.22 1012.45 1012.63 1012.84 1013.15 1013.42 1013.79 1014.24 1014.52 1014.83
1005.50 1007.60 1008.26 1008.31 1007.95 1007.76 1008.02 1007.96 1007.96 1007.70 1006.96 1006.89 1005.82 1006.08 1005.63 1005.33 1005.79 1005.86 1005.85 1006.26 1006.76 1007.07 1007.53 1007.97 1008.51 1009.02 1009.30 1009.55 1009.95 1010.29 1010.50 1010.66 1011.08 1011.58 1011.93 1012.28 1012.66 1012.86 1013.30 1013.65 1014.00 1014.26 1014.63 1015.04
1005.75 1006.92 1008.02 1008.67 1008.66 1008.60 1008.23 1005.47 1005.54 1005.17 1005.53 1005.51 1005.01 1002.76 1005.11 1005.45 1005.38 1005.44 1005.68 1005.91 1006.21 1006.68 1007.24 1007.57 1007.83 1008.04 1008.42 1008.76 1009.06 1009.73 1010.25 1010.68 1010.88 1011.48 1012.00 1012.29 1012.73 1013.08 1013.41 1013.66 1014.08 1014.52 1015.04 1015.32
1004.87 1006.94 1008.21 1009.18 1009.11 1008.71 1005.47 1004.66 1004.71 1004.81 1004.73 1004.19 1003.07 1004.07 1004.58 1004.79 1004.87 1004.97 1005.21 1005.46 1005.85 1006.49 1006.79 1006.87 1007.02 1007.28 1007.70 1008.13 1008.75 1009.12 1009.47 1010.08 1010.65 1011.11 1011.41 1011.82 1012.25 1012.72 1013.24 1013.76 1014.05 1014.30 1014.68 1015.20
1004.51 1006.00 1007.50 1008.28 1008.42 1007.36 1005.41 1004.62 1004.06 1004.41 1003.40 1003.60 1002.89 1003.90 1004.01 1004.49 1004.95 1004.96 1005.03 1005.23 1005.47 1005.67 1005.97 1006.56 1007.00 1007.13 1007.39 1007.81 1008.39 1009.06 1009.73 1010.03 1010.38 1010.65 1010.91 1011.21 1011.66 1012.45 1013.12 1013.56 1014.32 1014.70 1015.07 1015.34
1006.06 1006.47 1007.28 1007.78 1007.57 1006.56 1002.38 1003.21 1003.59 1005.16 1002.47 1002.22 1002.59 1003.07 1003.78 1004.66 1004.84 1004.43 1005.04 1004.89 1005.73 1006.47 1007.09 1007.55 1007.75 1007.69 1008.02 1008.47 1008.68 1009.32 1009.95 1010.49 1010.94 1011.37 1011.76 1012.07 1012.20 1012.50 1012.75 1013.21 1013.65 1014.43 1014.58 1015.13
1006.06 1006.66 1006.79 1006.93 1006.63 1005.07 1002.87 1002.12 1003.16 1004.29 1000.51 1000.16 1001.19 1002.28 1003.18 1003.72 1003.53 1004.58 1005.22 1006.17 1006.88 1007.63 1008.30 1008.59 1008.92 1009.37 1010.01 1010.04 1009.86 1010.02 1010.23 1010.43 1010.70 1010.91 1011.28 1011.93 1012.48 1012.86 1013.12 1013.34 1013.76 1014.40 1014.94 1015.21
1004.33 1005.44 1006.01 1006.36 1005.92 1004.34 1001.50 1002.11 1001.39 1001.86 1001.82 1001.48 1001.74 1002.27 1003.27 1003.47 1004.26 1005.17 1006.27 1007.35 1008.13 1009.03 1009.42 1009.65 1010.29 1010.80 1011.19 1011.17 1011.25 1011.23 1011.40 1011.21 1010.97 1010.78 1011.13 1011.62 1012.07 1012.46 1013.02 1013.53 1014.06 1014.68 1015.02 1015.34
1003.40 1002.10 1002.55 1003.36 1001.97 1001.83 1001.66 1001.53 1001.39 1001.51 1002.04 1002.52 1002.53 1002.95 1003.46 1004.26 1005.44 1006.35 1007.83 1008.79 1009.65 1010.41 1010.84 1011.07 1011.22 1011.70 1012.11 1012.13 1012.28 1012.16 1012.33 1012.00 1011.67 1011.56 1011.37 1011.50 1011.92 1012.12 1012.60 1013.17 1013.70 1014.41 1014.83 1015.27
1002.64 1002.07 1002.40 1002.91 1002.45 1002.39 1002.08 1002.19 1002.44 1002.58 1002.98 1003.33 1003.45 1003.97 1004.62 1005.59 1006.49 1007.79 1009.15 1010.46 1011.08 1011.64 1011.66 1011.72 1012.18 1012.92 1013.40 1013.56 1013.29 1013.31 1012.95 1012.27 1011.96 1012.00 1012.22 1012.51 1012.63 1012.77 1012.91 1013.22 1013.51 1014.21 1014.57 1015.00
1002.62 1002.66 1003.25 1003.75 1003.61 1003.29 1003.01 1003.18 1002.70 1003.55 1004.13 1004.54 1005.28 1005.41 1005.97 1006.77 1007.88 1008.96 1010.55 1011.66 1012.23 1012.75 1012.84 1012.74 1013.06 1013.95 1014.65 1014.49 1013.92 1014.08 1013.93 1013.20 1012.84 1012.22 1012.19 1012.33 1012.80 1013.30 1013.66 1014.11 1014.07 1014.21 1014.53 1014.91
1005.35 1005.86 1005.81 1005.77 1006.03 1005.08 1005.03 1005.25 1004.79 1004.70 1005.42 1005.99 1006.37 1007.04 1007.19 1007.75 1008.73 1009.96 1011.72 1012.64 1013.37 1013.82 1014.02 1014.33 1014.56 1015.11 1015.69 1015.50 1015.18 1015.16 1014.74 1013.96 1013.64 1013.44 1013.10 1013.16 1013.05 1013.45 1013.99 1014.54 1014.73 1014.61 1014.83 1015.09
Wind_Speed
3 4 13 20 14 6 12 12 12 8 4 6 8 13 12 10 8 9 9 8 8 10 10 11 10 9 11 13 14 14 15 14 11 10 8 6 7 6 4 4 6 8 8 8
5 7 6 14 19 16 12 14 12 7 9 2 6 14 10 10 11 11 12 10 10 8 11 13 15 12 13 15 16 17 16 16 14 11 9 6 6 7 7 7 7 7 10 10
7 5 8 16 19 16 6 10 8 5 6 4 5 11 12 11 12 11 11 10 11 12 10 9 17 18 15 16 17 17 18 17 15 12 8 4 4 3 7 7 7 8 7 9
11 12 15 9 15 14 13 7 4 4 5 4 9 7 5 8 16 14 18 14 14 12 11 11 15 15 14 15 12 13 14 14 13 15 11 12 10 8 7 8 6 6 8 9
12 13 14 17 12 12 5 9 6 3 3 5 6 3 6 9 7 13 15 15 17 15 10 11 12 14 18 16 15 14 15 13 12 14 15 11 10 9 6 5 8 7 7 8
12 3 11 22 15 16 1 10 4 2 2 8 10 9 6 7 8 6 7 11 15 13 11 9 8 10 11 9 11 11 13 15 13 13 15 15 14 11 9 8 8 7 6 8
10 12 13 5 6 7 7 13 4 3 5 7 3 10 14 7 8 7 9 8 5 13 13 11 12 10 9 11 13 11 13 15 14 15 16 17 16 14 13 10 9 9 8 7
13 10 18 14 16 12 14 12 6 8 6 3 2 9 7 11 12 9 5 4 4 2 2 9 11 11 11 11 10 10 10 14 11 14 16 15 15 10 10 11 9 8 8 10
16 8 20 14 7 14 14 15 3 7 3 3 6 6 8 14 8 4 3 2 5 7 7 7 7 9 9 9 10 11 9 8 8 11 12 14 13 14 11 8 7 7 8 6
8 6 18 6 5 7 14 9 6 2 5 5 6 5 8 5 9 7 7 8 9 9 9 8 6 6 4 4 4 6 8 10 8 6 7 9 10 8 8 7 8 7 6 7
12 5 4 7 11 22 7 13 7 6 4 5 1 7 6 9 8 8 5 3 3 3 3 6 7 7 5 3 5 4 5 5 7 8 6 7 7 8 7 7 7 8 6 7
6 6 11 25 5 3 14 7 12 6 7 3 4 8 3 1 8 8 4 2 1 1 0 3 7 8 6 5 5 6 6 7 6 6 5 6 5 6 6 6 7 6 8 6
8 6 7 7 8 3 15 16 24 4 3 8 6 6 1 6 6 4 2 2 1 2 2 3 5 5 6 7 6 6 6 5 5 4 4 4 5 5 6 6 5 6 7 7
11 5 7 12 17 7 12 21 12 17 4 4 15 2 4 5 6 5 2 5 6 5 6 5 4 5 5 6 7 6 6 6 6 6 5 5 6 6 6 5 6 7 5 6
9 4 1 1 6 13 15 20 21 20 23 8 11 15 9 8 8 6 6 5 6 5 5 6 6 7 7 6 6 6 6 7 7 7 6 7 7 6 6 7 6 5 5 4
5 9 4 1 4 10 12 20 20 21 26 23 21 11 9 12 4 6 6 5 6 6 6 6 6 7 8 8 8 7 7 7 7 7 7 6 5 5 5 5 5 4 2 3
19 10 12 8 5 8 2 28 26 26 21 28 25 31 10 9 9 8 7 7 7 7 8 8 9 9 8 9 9 9 8 6 7 7 6 6 7 7 6 6 6 6 5 4
20 12 5 5 6 7 8 20 22 25 24 28 29 7 12 12 8 9 9 10 8 7 9 10 9 6 7 6 8 7 8 8 8 8 8 8 8 8 7 7 7 6 5 5
12 10 5 7 9 5 7 9 23 17 23 26 28 19 11 5 1 7 7 8 11 11 7 4 5 6 7 8 7 7 7 6 7 10 10 9 9 7 5 6 5 3 3 4
3 9 5 7 6 13 8 13 11 6 29 14 19 16 15 9 14 11 12 11 3 8 5 6 5 3 5 3 5 7 6 5 8 3 3 3 4 6 7 7 7 2 3 3
10 8 13 6 4 9 8 11 16 14 10 15 21 16 17 14 16 4 7 5 5 6 7 6 7 7 7 7 5 3 3 6 2 4 5 5 6 5 3 4 3 4 3 5
12 12 7 6 5 12 7 14 22 7 4 6 3 5 6 8 4 6 8 8 8 8 7 7 7 7 7 7 6 5 5 6 4 3 4 4 5 4 5 6 4 4 4 5
6 11 11 16 12 4 4 6 2 1 6 5 6 2 3 6 5 6 7 8 8 7 6 5 6 7 8 8 8 5 6 6 4 1 2 4 5 4 5 7 6 4 5 5
4 7 5 7 7 7 8 1 4 3 5 6 5 4 3 6 8 8 8 6 6 5 5 5 9 9 9 7 8 6 6 4 6 6 4 3 3 3 4 3 4 4 5 4
4 8 6 1 2 4 3 2 5 6 6 7 5 4 7 9 8 9 8 7 6 6 6 7 9 9 8 6 9 8 9 5 5 5 4 5 4 4 4 4 3 3 3 2
5 3 5 7 4 2 3 6 6 7 5 4 7 5 6 7 10 11 9 7 6 6 6 9 9 9 7 7 8 9 8 6 4 5 4 3 4 4 3 3 3 10 8 3
Wind_Direction
296 151 217 204 203 192 172 195 207 207 178 164 231 252 244 237 200 223 234 237 235 198 185 183 191 183 179 182 188 196 191 188 186 200 194 184 187 180 187 229 223 182 175 186
270 257 260 222 206 219 174 204 213 216 126 128 270 260 244 230 234 216 206 219 228 214 187 183 182 184 187 189 188 198 198 194 192 192 193 191 182 195 204 211 215 194 189 178
187 246 225 234 207 205 180 211 192 192 140 218 293 274 242 240 238 225 232 222 214 213 202 191 183 190 186 192 194 200 202 196 196 188 182 180 174 168 193 205 209 200 192 171
211 241 255 216 231 211 189 197 195 154 128 243 155 283 259 228 231 216 223 226 223 222 201 197 185 185 189 205 201 201 206 198 194 188 186 194 200 194 204 203 202 190 193 179
198 189 216 251 220 234 204 148 171 152 185 333 232 269 257 223 217 209 215 219 226 223 213 197 186 180 190 192 196 197 200 201 193 189 195 193 200 206 184 190 185 196 200 191
168 139 198 227 207 199 12 116 113 80 158 251 209 214 225 228 232 229 219 215 213 215 225 203 191 182 195 185 189 195 194 207 198 193 194 200 203 197 200 192 196 194 199 197
171 208 176 181 203 202 184 139 131 189 202 231 138 222 246 256 237 232 225 211 216 205 204 200 186 197 188 184 189 191 194 206 199 195 199 203 205 202 202 195 199 190 190 193
156 184 178 176 200 180 197 182 157 178 193 220 341 241 249 243 246 256 256 252 104 344 234 206 194 184 184 183 188 185 188 205 197 195 204 205 207 209 207 202 197 194 192 197
177 181 177 178 182 156 190 215 151 101 28 71 208 262 294 263 245 249 246 180 230 244 252 229 192 175 183 183 186 188 192 208 203 203 198 203 206 208 210 199 192 196 186 182
166 122 185 166 126 195 199 150 213 266 151 232 257 229 237 248 226 204 197 220 235 230 220 217 198 178 173 167 167 173 188 203 204 211 199 197 198 194 195 187 198 187 180 175
169 116 139 139 198 188 174 192 212 140 187 175 213 253 219 236 206 189 154 177 223 175 249 229 169 147 150 146 171 201 213 200 203 207 203 187 190 192 185 186 187 187 185 178
211 90 152 189 172 201 218 215 193 176 222 174 140 265 230 80 114 120 86 316 19 21 230 104 134 136 153 180 184 192 198 204 206 199 200 193 180 179 184 189 186 191 212 184
178 136 114 122 274 244 208 214 203 154 86 212 136 251 246 115 123 139 139 31 139 177 129 99 116 156 178 189 188 188 183 187 184 175 179 180 189 187 203 182 185 184 184 181
139 143 166 184 214 111 194 210 215 206 168 180 218 95 175 178 182 234 255 175 153 173 168 169 169 202 210 197 183 185 181 171 167 167 179 187 197 190 193 192 206 217 190 176
137 112 272 190 172 181 188 198 203 207 227 198 214 215 240 180 164 154 137 130 138 161 183 188 192 205 208 198 197 191 182 173 168 172 183 195 188 181 181 176 184 192 170 169
115 189 178 284 192 173 179 194 201 208 222 235 238 250 214 246 92 194 226 190 198 193 185 205 222 215 209 199 198 199 195 181 166 184 195 188 171 158 166 155 152 159 177 188
176 153 182 213 141 98 294 201 197 210 215 216 226 228 175 226 228 225 239 218 227 189 200 215 220 222 213 208 182 187 191 181 177 184 189 177 170 171 179 171 162 171 185 173
173 161 166 156 143 178 246 182 206 212 218 224 236 200 198 220 232 209 210 220 221 196 213 221 219 223 210 188 194 182 179 182 185 195 192 183 175 173 184 180 183 177 167 179
184 171 123 153 199 296 274 226 192 187 236 228 234 232 220 189 99 252 217 212 222 214 225 256 199 210 177 180 184 182 195 197 183 204 200 193 182 188 168 170 160 150 145 148
186 182 175 161 174 202 257 165 169 139 268 210 219 222 218 205 237 247 210 221 267 65 42 36 23 44 76 45 167 169 194 188 229 339 300 196 170 176 185 176 167 155 145 154
163 167 190 182 189 268 226 183 136 171 260 203 207 202 205 204 220 169 116 77 77 72 57 32 43 54 32 5 3 213 187 229 247 183 169 157 190 169 189 159 129 140 139 119
165 165 179 190 188 259 165 149 170 170 245 84 102 147 195 224 133 130 104 96 84 73 50 39 66 58 33 22 15 15 27 351 357 108 154 163 175 160 147 149 125 128 133 127
187 196 166 185 201 216 205 179 116 54 152 174 132 90 149 116 110 102 86 75 63 62 54 43 80 72 37 28 25 45 357 352 5 65 158 159 151 147 154 153 146 127 138 134
244 192 161 104 204 179 184 171 103 111 122 123 85 97 82 119 121 106 95 85 80 67 73 82 76 58 39 24 32 20 346 2 50 52 37 34 66 101 108 99 124 142 150 139
201 150 160 294 93 64 344 218 152 125 118 109 74 101 130 122 109 116 109 94 81 72 62 68 74 64 49 17 34 4 349 354 48 71 77 79 83 75 73 56 70 92 50 99
4 16 181 226 14 355 58 347 345 137 149 150 132 94 60 98 102 98 82 79 75 67 52 74 75 78 51 38 27 4 347 353 59 65 58 69 86 86 96 112 83 59 67 89